Regional Weather Roundup
Issued by NWS Wakefield, VA

Home | Current Version | Previous Version | Graphics & Text | Print | Product List | Glossary On
Versions: 1 2 3 4 5 6 7 8 9 10 11 12 13 14 15 16 17 18 19 20 21 22 23 24 25 26 27 28 29 30 31 32 33 34 35 36 37 38 39 40 41 42 43 44 45 46 47 48 49 50
000
ASUS41 KAKQ 030515
RWRAKQ

REGIONAL WEATHER ROUNDUP
NATIONAL WEATHER SERVICE WAKEFIELD VA
100 AM EDT FRI JUL 03 2015

Note: "fair" indicates few or no clouds below 12,000 feet with no
significant weather and/or obstructions to visibility. * = Denotes
station may not report precipitation (e.g., rain,snow,etc.),
thunder or fog.

VAZ042-051-052>054-056-030600-
NORTHERN VIRGINIA

CITY           SKY/WX    TMP DP  RH WIND       PRES   REMARKS
WASH NATIONAL  PTCLDY    70  66  87 CALM      29.93R
DULLES         PTCLDY    62  61  96 CALM      29.93R FOG
FORT BELVOIR   CLEAR     63  63 100 CALM      29.92F FOG
QUANTICO       CLEAR     68  63  84 CALM      29.94R
FREDERICKSBRG* CLEAR     66  66 100 CALM      29.92S
STAFFORD*        N/A     60  60  97 CALM      29.97S FOG
WARRENTON      FOG       61  61 100 CALM      29.93S VSB 1
CULPEPER*      PTCLDY    60  60 100 CALM      29.95R FOG
MANASSAS*      CLOUDY    63  63 100 CALM      29.93S
LEESBURG*      CLEAR     64  64 100 CALM      29.94R FOG
WINCHESTER       N/A     63  63 100 CALM      29.94R FOG
FRONT ROYAL*   FAIR      63  61  94 S7        29.93S
LURAY*         FAIR      63  63 100 CALM      29.96S FOG
$$

VAZ048-049-060>072-079>083-030600-
CENTRAL AND SOUTH CENTRAL VIRGINIA

CITY           SKY/WX    TMP DP  RH WIND       PRES   REMARKS
RICHMOND       CLOUDY    69  66  90 CALM      29.93R
CHESTERFIELD*  NOT AVBL
PETERSBURG*    CLOUDY    67  67 100 CALM      29.94S FOG
HANOVER        CLEAR     65  64  97 CALM      29.95R FOG
TAPPAHANNOCK*  CLEAR     65  62  89 CALM      29.93S FOG
QUINTON*       FAIR      65  65 100 CALM      29.93R
CHARLOTTSVILLE CLEAR     65  64  97 CALM      29.94F FOG
GORDONSVILLE*  FAIR      63  61  94 CALM      29.94S FOG
ORANGE*        CLEAR     63  63 100 CALM      29.95F FOG
LOUISA*        FOG       61  59  94 CALM      29.93S VSB 3/4
BUMPASS*       FAIR      64  64  98 CALM      29.93S
FARMVILLE*     FOG       65  65 100 CALM      29.93S VSB 1
CREWE*         CLOUDY    66  65  95 CALM      29.94R
FORT PICKETT*  CLOUDY    67  66  98 N3        29.94S
CHASE CITY*    FAIR      68  68 100 CALM      29.95S
CLARKSVILLE*   CLOUDY    68  66  94 CALM      29.94S
SOUTH HILL*    PTCLDY    67  67  99 CALM      30.00S
LAWRENCEVILLE* NOT AVBL
EMPORIA*         N/A     70  70 100 CALM      29.94S FOG
$$

VAZ088>098-030600-
SOUTHEAST VIRGINIA

CITY           SKY/WX    TMP DP  RH WIND       PRES   REMARKS
NORFOLK        CLOUDY    75  69  81 CALM      29.90R
VIRGINIA BEACH LGT RAIN  76  72  87 CALM      29.90S FOG
NORFOLK NAVAL  CLOUDY    74  70  87 N5        29.92R FOG
WEST POINT*    PTCLDY    69  66  91 CALM      29.94R
SALUDA*        FAIR      70  66  85 NW7       29.92R
NEWPORT NEWS   MOCLDY    70  68  93 N5        29.92R FOG
LANGLEY AFB    CLOUDY    72  70  94 NW5       29.90R FOG
FORT EUSTIS    MOCLDY    71  71 100 N2        29.90S
WILLIAMSBURG*    N/A     72  72 100 CALM      29.93S
HR EXEC AP*    CLOUDY    72  70  94 CALM      29.94S
FRANKLIN*      CLOUDY    70  69  98 CALM      29.93R FOG
WAKEFIELD      MOCLDY    70  68  93 CALM      29.93R FOG
$$

VAZ020-022-025-037-045-030600-
WEST CENTRAL AND SOUTHWEST VIRGINIA

CITY           SKY/WX    TMP DP  RH WIND       PRES   REMARKS
STAUNTON*      PTCLDY    64  62  94 CALM      29.98S FOG
WAYNESBORO*    FAIR      61  61  99 SW6       29.98S
HOT SPRINGS VA MOCLDY    60  60 100 CALM      30.05R FOG
LYNCHBURG      PTCLDY    63  63 100 CALM      29.97S FOG
DANVILLE       MOCLDY    68  66  93 CALM      29.95S FOG
SOUTH BOSTON*  CLOUDY    67  66  95 MISG      29.95S VSB 1/4
MARTINSVILLE   CLOUDY    68  68 100 CALM      29.99S FOG
ROANOKE        CLOUDY    69  64  84 N3        29.99S
BLACKSBURG     CLOUDY    66  65  97 CALM      30.03F FOG
DUBLIN*        CLOUDY    67  67 100 CALM      30.02S FOG
MARION*        CLOUDY    67  65  91 CALM      30.05S
HILLSVILLE*    CLOUDY    65  65  99 S3        30.02F
RICHLANDS*     CLOUDY    65  65  98 CALM      30.01S
WISE*          CLOUDY    68  64  88 S5        30.01F
ABINGDON*      CLOUDY    69  68  98 CALM      30.00S
$$

MDZ021>025-VAZ099-100-030600-
SOUTHERN MARYLAND AND THE DELMARVA PENINSULA

CITY           SKY/WX    TMP DP  RH WIND       PRES   REMARKS
PATUXENT RIVER CLEAR     66  64  93 W5        29.92R
BAY BRIDGE APT   N/A     64  63  94 CALM      29.92S
LEONARDTOWN    CLEAR     64  63  94 CALM      29.94S
DOVER          CLEAR     67  67 100 W3        29.89R
GEORGETOWN     MOCLDY    66  65  96 CALM      29.92R FOG
EASTON         FOG       65  65 100 CALM      29.95S VSB 1/4
CAMBRIDGE        N/A     63  61  94 SE3       29.92R
SALISBURY      CLEAR     65  65 100 NW3       29.91S FOG
OCEAN CITY     PTCLDY    65  63  93 CALM      29.91R FOG
WALLOPS ISLAND PTCLDY    68  68 100 NW5       29.91F FOG
ACCOMACK*      MOCLDY    70  70 100 NE5       29.91R FOG
$$

NCZ012>017-030>032-030600-
NORTH CENTRAL AND EASTERN NORTH CAROLINA

CITY           SKY/WX    TMP DP  RH WIND       PRES   REMARKS
ROANOKE RAPIDS MOCLDY    70  70 100 CALM      29.93S FOG
RALEIGH        CLOUDY    73  71  93 CALM      29.94F FOG
ELIZABETH CITY LGT RAIN  73  71  93 W3        29.92R
AHOSKIE*       PTCLDY    70  69  96 CALM      29.93S
EDENTON*       RAIN      73  70  93 CALM      29.92S
CURRITUCK*     LGT RAIN  74  69  86 CALM      29.92F
KILL DEVIL HLS LGT RAIN  73  71  93 CALM      29.90F
MANTEO           N/A     72  70  94 W3        29.91F
CAPE HATTERAS  CLOUDY    78  74  87 SW15      29.92F
TARBORO*       DRIZZLE   73  72  95 W3        29.94S
GOLDSBORO      MOCLDY    73  70  92 SW5       29.91F
WASHINGTON     LGT RAIN  73  72  97 CALM      29.92F
GREENVILLE     CLOUDY    73  72  94 N3        29.94F
NEW BERN       PTCLDY    77  67  71 W9G20     29.94R
WILMINGTON     CLOUDY    73  69  87 W7        29.93R
$$

VAZ048-030600-
ELSEWHERE

CITY           SKY/WX    TMP DP  RH WIND       PRES   REMARKS
HARRISBURG PA  PTCLDY    64  61  90 CALM      29.91S
BALTIMORE      PTCLDY    64  63  96 CALM      29.92R
ANNAPOLIS      PTCLDY    67  62  84 CALM      29.91S
ANDREWS AFB    CLEAR     64  63  99 CALM      29.92S FOG
PHILADELPHIA   PTCLDY    70  64  81 CALM      29.91R
HENDERSON NC   CLOUDY    71  68  92 CALM      29.95F FOG
GREENSBORO     MOCLDY    71  70  96 S5        29.95F
ROCKY MOUNT    CLOUDY    73  71  93 CALM      29.93F
$$

VAZ100-030600-
MARINE

STATION/POSITION TIME  TEMP    WIND        PRES    WAVE   SWELL
                       AIR SEA DIR/SP/G            HT/PER HT/PER
                 (UTC) (F)     (DEG/KT/KT) (MB)    (FT/S) (FT/S)
BRANDYWINE LGT   0400   71 71  330/  6/  9 1012.6R
CAPE MAY NJ      0400   70 76  340/  2/  5 1012.0R
LEWES DE         0400   69 73  290/  5/  6 1012.4R
15NM E FENWICK I 0450   70 73              1012.4R   3/ 8
OCEAN-CITY-INLET 0400   69 71  330/  5/  5 1012.4R
WACHAPREAGUE VA  0400   70 79  340/  3/  6 1012.6R
GOOSES REEF MD   0500   73 77  340/  6/  8 1014.1R
COVE POINT MD    0400   70     320/  5/  6 1013.5R
SOLOMONS ISLAND  0400      79                N/A
BISHOPS HEAD MD  0400   70     360/  3/  4 1012.6R
PINEY POINT MD   0400           10/  6/  7   N/A
CAMBRIDGE MD     0400   71 79  350/  3/  5 1012.7R
LEWISETTA VA     0400   72 79   10/  4/  7 1012.6R
RAPPAHANNOCK LGT 0400          360/ 13/ 14 1012.8R
STINGRAY PT      0500   74 80  350/ 10/ 10 1013.0R   1/ 3
YORK RVR RNG VA  0400   74     360/ 13/ 14 1011.9R
YORKTOWN VA      0400   72 80  330/  6/  9 1012.6R
JAMESTOWN VA     0500   71 82  350/  4/  6   N/A
DOMINION TERM VA 0400   73      10/  5/  6 1012.4R
KIPTOPEKE VA     0400      83   40/  4/  5   N/A
CHES BAY BRIDGE  0400   76 73   10/  9/ 10 1011.9R
CAPE HENRY VA    0400   74      20/  9/ 10 1010.7R
CHESAPEAKE LGHT  0400   74     350/  8/  9 1013.2R
WILLOUBY STN VA  0400   74     350/  7/  8 1013.2R
CAPE HENRY BUOY  0428      78                N/A     2/ 7
1ST LANDING BUOY 0500      75              1012.4R   1/ 4
CAPE CHARLES BUO 0426      76                N/A     2/ 8   2/ 8
OFFSHORE WE BUOY 0411      78                N/A     3/ 6   3/ 6
64NM E OF VA BCH 0450   76 77  250/ 12/ 14 1012.2R   4/ 7   3/ 7
DUCK PIER NC     0400   72 61  180/  7/  7 1012.2R
44100 DUCK FRF   0424      78                N/A     3/ 6
44056 DUCK FRF   0411      70                N/A     2/ 8
OREGON INLET NC  0400   73 83  270/  7/ 11 1013.2R
HATTERAS NC      0400   78 79  220/ 13/ 16 1012.9R
DIAMOND SHLS NC  0450   82 83  230/ 25/ 33 1012.5F   8/ 7   2/15
CAPE LOOKOUT NC  0500   78     270/ 19/ 22 1013.2R
$$



USA.gov is the U.S. government's official web portal to all federal, state and local government web resources and services.